Date,TemperatureHighF,TemperatureAvgF,TemperatureLowF,DewpointHighF,DewpointAvgF,DewpointLowF,HumidityHigh,HumidityAvg,HumidityLow,PressureMaxIn,PressureMinIn,WindSpeedMaxMPH,WindSpeedAvgMPH,GustSpeedMaxMPH,PrecipitationSumIn
2013-1-1,32,20,7,24,9,-4,73,61,53,29.98,29.80,19,6,19,0.00
2013-1-2,25,20,11,15,10,0,74,63,56,30.13,29.92,18,6,23,0.00
2013-1-3,28,22,16,23,15,7,83,73,65,30.13,29.89,22,6,22,0.00
2013-1-4,31,29,25,22,19,14,73,66,56,29.95,29.80,38,13,38,0.00
2013-1-5,34,30,28,24,20,16,76,66,58,30.22,29.95,22,6,23,0.00
2013-1-6,35,33,29,32,27,19,93,79,65,30.04,29.83,17,8,22,0.00
2013-1-7,33,28,23,31,20,14,92,72,58,30.31,30.04,17,3,17,0.00
2013-1-8,35,30,23,22,18,13,72,60,53,30.25,30.10,19,5,19,0.00
2013-1-9,44,34,23,30,24,13,78,67,56,30.28,29.89,32,9,32,0.39
2013-1-10,38,34,31,25,23,20,75,63,53,30.51,30.28,18,4,18,0.00
2013-1-11,44,39,31,43,31,22,98,74,54,30.34,29.83,18,8,21,0.08
2013-1-12,53,47,40,53,45,39,98,96,87,29.95,29.89,15,6,15,0.00
2013-1-13,67,53,46,53,50,45,98,88,61,29.92,29.72,26,7,26,0.00
2013-1-14,51,34,27,50,24,14,98,69,53,30.31,29.72,31,6,31,0.00
2013-1-15,31,28,27,17,15,14,62,57,51,30.34,30.10,10,4,10,0.00
2013-1-16,36,32,28,25,20,16,69,63,51,30.10,29.75,22,6,22,0.00
2013-1-17,33,25,16,26,14,8,76,64,54,30.10,29.78,23,7,28,0.00
2013-1-18,33,20,14,14,7,1,70,57,45,30.34,29.95,22,6,24,0.00
2013-1-19,46,40,33,24,20,13,53,44,38,29.95,29.57,34,11,36,0.00
2013-1-20,46,30,17,28,12,1,57,46,39,30.01,29.45,41,13,41,0.00
2013-1-21,22,18,11,9,3,-4,63,52,46,29.98,29.80,20,5,20,0.00
2013-1-22,12,8,6,-3,-6,-9,51,51,51,30.07,29.83,24,8,24,0.00
2013-1-23,15,10,5,-1,-5,-9,51,50,44,30.13,30.01,15,5,15,0.00
2013-1-24,13,10,4,-2,-5,-11,50,50,50,30.42,29.98,17,5,18,0.00
2013-1-25,17,12,6,4,-2,-9,62,54,48,30.40,29.98,11,4,11,0.00
2013-1-26,23,15,5,8,2,-6,66,57,45,30.31,30.01,13,3,13,0.00
2013-1-27,27,21,14,12,10,4,74,61,51,30.45,30.28,10,3,10,0.00
2013-1-28,42,34,23,42,30,11,98,86,60,30.28,29.78,23,6,23,0.35
2013-1-29,53,42,34,51,41,33,98,98,98,29.98,29.72,15,4,15,0.35
2013-1-30,59,55,49,56,50,45,98,85,63,29.72,29.07,28,9,28,0.20
2013-1-31,52,28,21,51,17,5,97,62,43,29.66,29.04,35,14,44,0.24
2013-2-1,21,18,16,11,6,2,72,59,47,30.10,29.66,25,8,25,0.00
2013-2-2,21,17,13,9,5,1,69,60,52,30.10,29.89,17,7,17,0.00
2013-2-3,24,18,12,12,7,1,74,62,45,29.89,29.72,14,4,15,0.00
2013-2-4,21,18,14,10,5,1,65,57,44,29.89,29.78,20,6,20,0.00
2013-2-5,27,22,17,16,10,7,72,61,49,29.86,29.78,16,4,16,0.00
2013-2-6,26,22,14,20,10,2,78,59,43,30.28,29.78,19,6,20,0.00
2013-2-7,30,23,15,17,10,4,66,57,50,30.31,29.98,13,6,15,0.00
2013-2-8,34,28,17,31,21,11,94,77,58,30.04,29.72,10,2,11,0.00
2013-2-9,20,17,9,12,10,1,82,75,65,30.34,30.04,0,0,0,0.00
2013-2-10,36,20,0,22,10,-7,78,66,50,30.31,29.89,14,3,17,0.00
2013-2-11,46,37,31,38,27,19,90,67,50,29.89,29.51,37,12,39,0.20
2013-2-12,33,31,29,30,23,18,95,73,60,29.89,29.66,26,10,29,0.00
2013-2-13,36,30,22,22,19,14,75,64,52,29.86,29.66,12,4,12,0.04
2013-2-14,38,31,22,34,25,15,94,77,56,29.86,29.72,15,5,15,0.12
2013-2-15,36,31,22,33,19,8,91,60,45,30.01,29.72,29,10,31,0.00
2013-2-16,28,23,14,15,10,4,69,57,41,30.01,29.83,25,3,28,0.00
2013-2-17,18,14,10,13,2,-4,78,61,54,30.10,29.83,20,6,23,0.00
2013-2-18,33,20,9,18,5,-4,62,53,47,30.19,29.83,11,5,11,0.04
2013-2-19,40,32,23,34,22,12,83,65,45,29.83,29.51,32,10,32,0.24
2013-2-20,23,20,18,16,8,4,77,60,45,29.98,29.69,29,10,29,0.00
2013-2-21,21,18,12,12,8,2,76,65,56,30.31,29.98,23,7,23,0.00
2013-2-22,33,27,20,24,18,11,74,69,54,30.31,29.92,15,7,17,0.00
2013-2-23,36,32,29,29,24,19,80,72,66,29.95,29.83,18,6,18,0.00
2013-2-24,31,29,28,23,20,18,79,70,60,30.01,29.80,17,6,17,0.00
2013-2-25,34,30,27,28,24,20,87,77,68,30.16,30.01,13,4,14,0.00
2013-2-26,40,32,23,32,24,18,98,75,51,30.16,29.72,16,6,20,0.28
2013-2-27,34,33,32,33,32,32,98,98,98,29.72,29.54,20,5,20,0.31
2013-2-28,34,33,32,33,32,32,98,98,93,29.69,29.48,13,5,15,0.28
2013-3-1,32,28,24,32,23,16,98,83,68,29.86,29.69,17,6,17,0.00
2013-3-2,24,23,20,19,15,12,80,72,61,29.89,29.80,15,6,15,0.00
2013-3-3,24,22,20,18,14,9,83,72,56,29.83,29.80,15,6,15,0.00
2013-3-4,29,24,20,18,14,11,78,66,51,29.98,29.83,20,7,20,0.00
2013-3-5,32,26,22,19,16,14,77,67,55,30.04,29.89,13,5,15,0.04
2013-3-6,37,30,20,30,23,14,86,77,62,30.07,29.89,13,5,16,0.00
2013-3-7,35,33,30,31,28,24,96,82,69,30.22,30.07,11,4,11,0.04
2013-3-8,37,32,28,28,22,17,94,69,48,30.34,30.19,16,5,20,0.00
2013-3-9,41,33,26,30,25,20,94,72,49,30.34,30.16,9,4,9,0.00
2013-3-10,57,45,32,30,24,21,73,45,35,30.16,29.92,15,7,20,0.00
2013-3-11,53,50,46,41,27,24,70,41,38,29.92,29.63,24,8,25,0.00
2013-3-12,50,37,32,42,31,24,94,80,65,29.86,29.66,24,8,24,0.12
2013-3-13,35,30,20,27,20,11,78,65,49,29.89,29.78,27,9,29,0.00
2013-3-14,31,24,17,13,8,5,76,52,37,30.01,29.89,26,9,28,0.00
2013-3-15,35,30,24,28,20,8,88,67,49,29.98,29.69,20,8,24,0.08
2013-3-16,29,25,17,16,12,7,65,57,52,29.92,29.78,13,5,16,0.00
2013-3-17,28,22,15,18,10,2,77,61,43,30.25,29.92,15,4,15,0.00
2013-3-18,34,25,14,29,13,2,84,61,41,30.25,29.66,23,7,26,0.00
2013-3-19,34,30,23,31,22,12,88,72,55,29.78,29.63,28,7,35,0.20
2013-3-20,33,25,21,19,14,10,79,63,42,29.78,29.75,22,7,24,0.04
2013-3-21,29,23,15,21,12,6,81,64,44,29.78,29.66,22,7,22,0.00
2013-3-22,30,27,24,23,20,18,80,76,68,29.86,29.69,18,7,21,0.00
2013-3-23,36,31,27,22,19,14,77,62,45,29.95,29.83,17,7,19,0.00
2013-3-24,35,29,22,25,19,14,80,64,52,29.95,29.69,15,5,17,0.04
2013-3-25,37,32,28,27,23,20,78,69,57,29.69,29.57,14,6,14,0.00
2013-3-26,44,36,29,28,24,20,81,65,42,29.89,29.69,17,6,20,0.00
2013-3-27,42,34,30,34,28,22,98,80,55,30.01,29.86,20,7,20,0.04
2013-3-28,39,34,31,38,33,31,98,95,84,30.13,29.98,15,3,16,0.12
2013-3-29,49,39,33,33,28,23,89,68,41,30.16,30.07,16,6,20,0.00
2013-3-30,49,38,29,26,22,16,72,54,35,30.16,29.98,15,4,20,0.00
2013-3-31,57,44,32,38,27,17,83,53,35,29.98,29.60,18,7,21,0.00
2013-4-1,44,34,25,38,22,11,85,63,40,29.89,29.54,23,8,27,0.04
2013-4-2,31,26,23,22,13,8,78,57,44,30.04,29.86,29,8,29,0.00
2013-4-3,35,29,25,14,11,9,59,48,38,30.31,30.04,23,8,24,0.00
2013-4-4,52,36,23,22,15,9,60,43,27,30.28,29.86,15,6,17,0.00
2013-4-5,43,36,27,24,16,9,56,44,39,30.10,29.83,24,7,24,0.00
2013-4-6,47,34,22,21,16,8,62,47,32,30.25,29.95,11,4,15,0.00
2013-4-7,67,52,38,39,28,19,57,41,33,29.98,29.66,33,11,36,0.00
2013-4-8,59,46,38,50,32,25,90,58,39,30.07,29.72,21,4,21,0.00
2013-4-9,61,50,45,49,41,37,98,72,46,30.07,29.72,22,6,28,0.35
2013-4-10,47,42,38,46,42,37,98,98,98,29.98,29.83,15,6,18,0.43
2013-4-11,38,34,32,37,33,31,98,98,98,30.07,29.89,18,2,18,0.28
2013-4-12,50,39,32,50,38,32,98,98,91,29.89,29.48,25,6,26,0.87
2013-4-13,44,39,37,36,30,26,91,71,52,29.89,29.72,28,10,28,0.00
2013-4-14,47,39,33,30,26,21,81,59,44,30.13,29.89,17,6,18,0.00
2013-4-15,71,54,36,44,35,22,66,49,34,30.10,29.95,21,7,24,0.00
2013-4-16,62,56,44,55,46,33,98,72,51,30.19,29.92,27,9,27,0.12
2013-4-17,54,45,35,35,30,25,83,56,39,30.28,30.16,15,5,15,0.00
2013-4-18,76,60,42,53,43,26,72,54,44,30.16,29.69,26,10,28,0.00
2013-4-19,71,56,40,52,42,24,74,59,48,29.72,29.36,35,13,37,0.04
2013-4-20,41,36,32,30,21,15,82,55,40,30.34,29.69,27,10,31,0.04
2013-4-21,46,35,26,23,18,13,63,49,39,30.60,30.34,13,3,15,0.00
2013-4-22,60,46,31,31,22,12,53,40,29,30.51,30.25,16,5,17,0.00
2013-4-23,66,52,38,36,28,19,50,40,30,30.28,29.89,14,6,17,0.00
2013-4-24,65,53,36,52,38,30,86,60,40,29.95,29.57,31,9,31,0.20
2013-4-25,56,44,34,35,30,24,87,61,34,30.25,29.95,24,6,24,0.00
2013-4-26,56,45,36,35,28,21,86,54,30,30.40,30.25,15,4,15,0.00
2013-4-27,69,53,38,37,30,22,58,42,27,30.37,30.16,11,3,11,0.00
2013-4-28,72,57,44,45,36,27,76,47,27,30.16,29.98,21,6,21,0.08
2013-4-29,64,56,49,51,46,42,85,68,55,30.01,29.92,15,7,17,0.20
2013-4-30,73,62,55,52,47,43,77,59,42,30.16,29.98,17,6,17,0.00
2013-5-1,77,65,54,51,43,28,70,48,26,30.28,30.16,13,5,13,0.00
2013-5-2,78,64,52,42,34,27,47,33,23,30.34,30.22,15,4,16,0.00
2013-5-3,77,65,52,44,38,33,50,38,28,30.25,30.16,13,4,16,0.04
2013-5-4,75,63,52,41,36,29,46,36,25,30.22,30.10,13,4,14,0.00
2013-5-5,76,63,49,42,36,33,58,39,23,30.16,30.01,13,3,15,0.00
2013-5-6,75,61,46,38,33,26,51,36,22,30.10,29.98,13,3,14,0.04
2013-5-7,76,64,50,49,43,36,74,48,32,30.07,29.98,13,3,13,0.00
2013-5-8,70,61,54,61,51,41,97,73,52,30.01,29.89,12,2,12,0.63
2013-5-9,68,61,56,61,56,49,98,86,62,29.92,29.83,12,3,13,0.12
2013-5-10,72,60,52,62,54,44,98,81,55,29.92,29.69,19,4,19,0.55
2013-5-11,59,52,46,58,48,40,98,88,67,29.72,29.63,19,7,23,0.04
2013-5-12,50,44,38,44,32,22,85,64,42,29.86,29.63,30,10,31,0.04
2013-5-13,50,41,34,30,26,22,71,56,44,30.04,29.86,20,7,22,0.00
2013-5-14,60,48,34,34,30,26,77,52,33,30.07,29.86,11,4,13,0.00
2013-5-15,77,60,49,53,41,32,68,49,33,29.86,29.51,27,7,32,0.00
2013-5-16,74,62,50,44,38,30,69,44,24,29.95,29.69,23,6,24,0.00
2013-5-17,67,55,41,42,34,29,72,47,28,30.16,29.95,11,2,11,0.00
2013-5-18,73,58,45,42,37,30,67,47,32,30.16,30.07,11,3,13,0.00
2013-5-19,80,67,56,57,52,39,73,58,41,30.07,29.92,12,4,14,0.00
2013-5-20,87,72,60,64,58,52,82,62,37,29.98,29.83,11,4,12,0.00
2013-5-21,88,74,64,67,60,54,87,63,38,29.89,29.72,21,5,25,0.12
2013-5-22,88,73,63,66,60,53,92,67,33,29.75,29.60,22,5,23,0.04
2013-5-23,76,66,46,60,54,41,85,68,44,29.83,29.66,20,8,24,0.00
2013-5-24,50,43,38,41,34,29,92,73,47,30.13,29.83,18,8,18,0.12
2013-5-25,58,48,39,35,31,26,78,52,35,30.13,30.07,25,7,25,0.00
2013-5-26,63,52,41,34,30,24,69,46,28,30.13,30.04,20,6,22,0.00
2013-5-27,71,57,41,38,34,30,67,45,26,30.16,30.04,13,4,13,0.00
2013-5-28,62,57,53,61,49,30,98,77,40,30.07,29.83,13,3,17,1.18
2013-5-29,78,69,61,69,60,53,98,75,45,29.95,29.80,25,8,26,0.55
2013-5-30,87,75,64,63,58,54,83,59,35,30.04,29.95,15,5,17,0.04
2013-5-31,90,78,67,63,58,54,75,54,34,29.98,29.86,17,5,18,0.00
2013-6-1,88,75,67,68,61,56,96,65,39,29.89,29.69,22,6,24,0.31
2013-6-2,73,68,57,67,59,46,98,76,48,29.80,29.63,32,8,32,1.26
2013-6-3,66,57,50,46,41,37,72,56,41,29.92,29.80,15,6,15,0.00
2013-6-4,69,57,48,42,37,32,69,49,30,30.07,29.92,15,4,15,0.00
2013-6-5,70,58,49,44,39,33,70,50,34,30.10,29.95,13,4,14,0.00
2013-6-6,59,56,52,58,50,34,98,84,44,29.98,29.72,10,4,10,1.26
2013-6-7,60,57,56,58,56,55,98,97,89,29.75,29.69,9,3,10,0.04
2013-6-8,63,58,55,59,55,49,98,88,70,29.95,29.72,11,4,11,0.04
2013-6-9,77,64,52,54,50,47,85,63,41,30.07,29.95,10,4,11,0.00
2013-6-10,71,65,60,66,59,51,98,82,68,29.98,29.60,15,4,17,0.08
2013-6-11,70,64,60,65,60,51,98,86,62,29.75,29.54,17,6,17,0.39
2013-6-12,79,66,54,56,52,47,91,61,38,29.80,29.66,10,2,10,0.00
2013-6-13,67,61,55,61,57,52,98,88,60,29.66,29.39,16,5,17,0.55
2013-6-14,73,62,55,59,54,49,98,78,44,29.86,29.66,15,5,15,0.00
2013-6-15,74,64,54,54,48,42,84,58,34,29.92,29.80,15,5,15,0.08
2013-6-16,76,66,62,65,55,47,91,69,56,29.80,29.57,22,5,22,0.08
2013-6-17,78,69,60,61,57,49,94,68,39,29.78,29.69,17,5,18,0.08
2013-6-18,71,62,55,61,49,40,98,64,36,29.86,29.75,12,3,14,0.00
2013-6-19,70,61,51,46,41,36,72,50,32,30.01,29.86,11,3,13,0.04
2013-6-20,78,62,47,46,41,35,69,47,30,30.07,30.01,11,2,13,0.00
2013-6-21,84,68,52,51,46,40,67,47,31,30.07,30.01,9,2,10,0.00
2013-6-22,88,75,61,62,57,48,72,54,39,30.01,29.83,17,4,17,0.00
2013-6-23,87,78,69,68,63,54,92,62,40,29.89,29.80,17,6,18,0.59
2013-6-24,85,78,72,64,59,53,66,53,39,29.86,29.75,20,8,22,0.00
2013-6-25,82,75,71,65,60,55,70,61,46,29.78,29.63,23,7,24,0.00
2013-6-26,84,74,68,67,62,54,93,68,43,29.63,29.60,17,6,17,0.04
2013-6-27,81,72,65,67,62,56,95,71,54,29.63,29.45,9,2,10,0.16
2013-6-28,69,65,62,66,64,61,98,94,87,29.45,29.30,10,2,11,1.50
2013-6-29,76,67,62,66,61,57,98,84,57,29.48,29.30,10,3,10,0.28
2013-6-30,77,68,60,62,58,55,92,70,53,29.72,29.48,14,2,15,0.00
2013-7-1,68,64,60,63,60,56,98,85,67,29.80,29.69,14,3,16,0.20
2013-7-2,76,66,59,68,63,59,98,90,75,29.83,29.78,10,1,12,0.08
2013-7-3,87,72,64,74,68,62,98,86,48,29.89,29.83,13,2,13,0.31
2013-7-4,84,74,68,75,68,63,98,85,51,29.92,29.86,11,3,12,0.39
2013-7-5,85,75,68,70,65,61,93,73,50,29.89,29.80,19,3,19,0.00
2013-7-6,88,76,68,66,63,58,84,65,42,29.89,29.78,10,3,11,0.00
2013-7-7,83,76,68,69,64,59,88,69,50,29.80,29.69,17,5,17,0.00
2013-7-8,84,74,68,69,65,58,96,75,47,29.80,29.72,14,5,14,0.00
2013-7-9,83,75,70,70,65,62,89,72,57,29.78,29.66,11,2,12,0.00
2013-7-10,83,76,70,72,66,56,90,72,53,29.66,29.48,24,7,24,0.00
2013-7-11,78,70,62,63,54,50,78,58,39,29.78,29.57,13,4,14,0.00
2013-7-12,76,68,61,68,60,53,100,78,60,29.92,29.75,10,2,11,0.00
2013-7-13,83,72,60,68,62,57,100,73,50,29.98,29.89,11,2,11,0.00
2013-7-14,91,78,67,72,66,61,87,67,43,30.04,29.95,9,2,10,0.00
2013-7-15,90,80,73,74,69,62,87,70,49,30.04,29.95,10,3,11,0.00
2013-7-16,90,80,70,75,67,63,89,68,42,30.01,29.95,13,3,13,0.00
2013-7-17,91,82,74,80,72,67,90,73,48,29.98,29.83,15,6,17,0.00
2013-7-18,90,82,75,77,73,68,96,76,56,29.86,29.69,13,6,15,0.00
2013-7-19,91,81,68,74,69,59,100,67,45,29.72,29.48,30,9,30,0.20
2013-7-20,78,71,66,73,68,61,100,90,58,29.66,29.45,15,4,15,0.00
2013-7-21,78,70,63,64,60,56,91,72,55,29.75,29.63,13,3,13,0.00
2013-7-22,82,71,62,66,61,56,88,72,54,29.75,29.54,9,2,11,0.00
2013-7-23,82,73,65,69,65,58,97,78,51,29.54,29.36,17,4,17,0.12
2013-7-24,68,62,56,59,51,47,83,68,50,29.78,29.45,15,4,15,0.00
2013-7-25,75,63,52,54,50,46,83,63,45,29.83,29.75,10,2,12,0.00
2013-7-26,81,66,52,58,52,45,84,62,42,29.86,29.75,9,2,10,0.00
2013-7-27,80,69,59,65,58,50,82,69,52,29.75,29.57,11,3,13,0.00
2013-7-28,75,68,62,64,58,51,90,71,52,29.72,29.54,13,5,17,0.00
2013-7-29,71,64,57,57,53,50,79,68,54,29.86,29.69,17,5,20,0.00
2013-7-30,75,66,57,59,55,51,87,69,51,29.92,29.83,11,4,13,0.00
2013-7-31,80,68,56,60,56,51,88,68,46,29.86,29.69,11,2,12,0.00
2013-8-1,75,68,64,69,62,58,100,82,64,29.69,29.51,15,4,16,0.28
2013-8-2,75,67,59,68,59,53,100,78,49,29.63,29.57,18,4,23,0.28
2013-8-3,75,67,61,64,58,51,100,74,45,29.66,29.57,15,4,15,0.00
2013-8-4,72,64,58,59,52,45,87,66,47,29.78,29.66,17,5,17,0.00
2013-8-5,75,63,52,57,50,45,84,63,44,29.80,29.75,9,2,9,0.00
2013-8-6,80,67,55,61,54,48,84,64,43,29.78,29.69,10,2,10,0.00
2013-8-7,84,73,64,66,61,56,77,67,52,29.72,29.60,15,6,15,0.00
2013-8-8,83,73,66,75,69,61,100,88,67,29.69,29.63,13,3,13,1.06
2013-8-9,76,69,64,70,66,58,100,89,59,29.66,29.57,10,3,12,0.79
2013-8-10,71,66,59,63,55,49,94,69,47,29.80,29.66,16,4,16,0.00
2013-8-11,76,65,55,57,53,49,90,67,45,29.83,29.72,12,2,12,0.00
2013-8-12,78,69,61,60,57,53,78,67,52,29.75,29.57,13,3,13,0.00
2013-8-13,71,65,58,68,58,44,100,78,52,29.57,29.45,16,5,22,0.24
2013-8-14,67,60,54,55,48,44,92,67,46,29.75,29.54,22,6,22,0.00
2013-8-15,72,62,52,53,48,44,79,62,44,29.78,29.72,22,4,22,0.00
2013-8-16,74,64,54,56,52,47,81,66,49,29.80,29.72,10,2,10,0.00
2013-8-17,80,67,54,61,54,48,90,65,41,29.86,29.80,8,1,9,0.00
2013-8-18,81,68,57,60,56,50,83,66,45,29.80,29.66,10,1,10,0.00
2013-8-19,80,70,60,65,58,54,88,67,48,29.66,29.54,10,4,13,0.00
2013-8-20,81,71,62,63,58,55,81,65,45,29.63,29.57,13,5,13,0.00
2013-8-21,85,73,63,64,59,56,79,63,44,29.63,29.48,12,4,15,0.00
2013-8-22,83,73,65,69,63,54,80,72,56,29.48,29.33,18,5,18,0.00
2013-8-23,74,65,56,59,52,46,91,65,45,29.57,29.42,14,3,14,0.00
2013-8-24,76,63,51,59,49,43,88,62,43,29.69,29.57,10,1,10,0.00
2013-8-25,80,67,53,59,52,45,84,59,41,29.69,29.45,15,4,15,0.00
2013-8-26,78,70,67,70,64,55,100,81,61,29.51,29.24,18,7,18,0.35
2013-8-27,81,74,68,73,70,67,100,88,66,29.24,29.15,11,4,11,0.00
2013-8-28,81,73,67,72,69,61,100,87,67,29.21,29.13,12,2,13,0.00
2013-8-29,82,72,63,72,64,59,100,77,55,29.30,29.21,10,2,11,0.00
2013-8-30,82,72,62,69,63,59,97,74,56,29.27,29.01,13,4,15,0.00
2013-8-31,81,74,68,71,66,62,88,77,60,29.10,28.95,15,4,17,0.00
2013-9-1,82,72,65,71,67,60,100,87,62,29.10,28.98,15,2,18,0.55
2013-9-2,79,71,63,75,67,56,100,89,65,29.04,28.92,17,4,21,0.24
2013-9-3,67,63,60,57,55,53,86,77,66,29.15,29.01,15,4,16,0.00
2013-9-4,74,66,56,62,55,50,94,71,44,29.18,29.15,20,7,24,0.00
2013-9-5,64,58,48,59,47,38,88,68,45,29.42,29.18,16,4,17,0.04
2013-9-6,69,57,44,47,43,38,83,63,43,30.25,29.30,11,2,13,0.00
2013-9-7,64,60,54,62,51,44,94,73,58,30.07,29.86,25,6,25,0.08
2013-9-8,65,61,49,65,51,40,100,72,49,30.07,29.83,15,5,17,0.00
2013-9-9,74,60,45,61,50,38,82,70,53,30.10,29.95,14,2,15,0.00
2013-9-10,86,76,67,76,68,60,100,78,62,29.98,29.89,23,8,25,0.83
2013-9-11,88,80,73,71,69,64,81,69,55,30.01,29.89,22,7,22,0.00
2013-9-12,75,68,60,69,63,55,99,85,67,29.92,29.72,15,5,17,0.16
2013-9-13,60,54,49,57,51,45,96,88,77,29.98,29.75,15,6,15,0.04
2013-9-14,59,52,48,47,42,37,95,70,46,30.07,29.98,13,4,13,0.00
2013-9-15,66,56,45,51,45,39,90,67,54,30.10,30.01,13,5,14,0.08
2013-9-16,56,50,42,55,48,39,100,92,81,30.31,30.04,15,2,15,0.04
2013-9-17,60,48,37,46,40,33,100,74,53,30.42,30.25,10,2,10,0.00
2013-9-18,69,54,41,48,43,35,88,68,43,30.25,30.07,9,1,10,0.00
2013-9-19,73,60,48,58,51,43,91,73,52,30.10,29.98,10,3,10,0.00
2013-9-20,79,67,53,66,58,50,100,76,55,29.98,29.75,13,5,15,0.00
2013-9-21,69,62,53,63,59,53,100,91,69,29.75,29.63,27,4,27,1.14
2013-9-22,54,51,49,53,44,37,100,77,60,29.98,29.72,15,5,18,0.00
2013-9-23,56,50,44,42,39,35,81,67,53,30.10,29.98,14,3,15,0.00
2013-9-24,61,50,40,49,41,35,98,73,50,30.10,29.98,9,2,10,0.00
2013-9-25,65,52,41,53,43,36,98,72,51,29.98,29.89,9,2,10,0.00
2013-9-26,66,53,41,53,45,36,91,73,57,30.13,29.95,11,2,12,0.00
2013-9-27,64,54,45,55,47,40,100,78,63,30.22,30.10,10,2,10,0.00
2013-9-28,68,56,44,59,49,39,100,77,55,30.25,30.13,9,2,10,0.00
2013-9-29,71,59,48,54,49,42,89,70,52,30.13,29.95,12,4,14,0.00
2013-9-30,72,63,54,59,54,48,87,74,59,29.98,29.92,9,3,11,0.00
2013-10-1,70,63,55,62,56,51,100,78,52,30.01,29.89,15,4,19,0.00
2013-10-2,72,65,56,62,58,50,90,78,59,30.07,29.89,15,5,19,0.00
2013-10-3,69,58,46,56,48,41,88,69,44,30.10,29.98,6,0,6,0.00
2013-10-4,70,63,59,70,63,54,100,98,81,30.04,29.95,10,3,11,0.75
2013-10-5,62,59,58,62,59,58,100,100,98,30.07,29.98,10,3,10,0.75
2013-10-6,75,66,58,74,65,58,100,96,81,29.98,29.72,15,3,16,0.43
2013-10-7,70,58,49,64,55,47,100,91,75,30.01,29.63,21,8,23,0.51
2013-10-8,59,51,44,51,44,39,100,80,55,30.31,30.01,10,3,12,0.00
2013-10-9,62,50,40,48,42,36,93,74,51,30.34,30.22,10,2,10,0.00
2013-10-10,62,50,40,48,39,34,87,68,45,30.22,30.10,9,2,10,0.00
2013-10-11,66,52,44,52,42,36,100,71,48,30.13,30.07,9,2,10,0.00
2013-10-12,68,54,42,50,42,35,97,65,43,30.16,30.07,12,2,12,0.00
2013-10-13,68,60,50,60,51,37,100,72,57,30.22,30.13,10,4,13,0.12
2013-10-14,60,55,45,60,50,39,100,86,60,30.31,30.22,14,2,14,0.08
2013-10-15,65,53,41,58,48,37,100,82,64,30.25,29.92,17,3,17,0.00
2013-10-16,65,60,54,59,54,48,96,79,65,29.92,29.75,15,7,17,0.20
2013-10-17,60,53,47,52,48,44,100,84,60,29.86,29.66,9,3,11,0.43
2013-10-18,57,51,46,51,43,37,100,78,49,29.86,29.69,20,5,20,0.04
2013-10-19,59,52,42,46,41,37,85,69,49,29.86,29.63,19,6,22,0.08
2013-10-20,50,45,40,44,39,35,93,79,66,29.92,29.72,16,6,16,0.04
2013-10-21,63,52,41,45,40,36,94,64,43,29.92,29.75,22,6,23,0.00
2013-10-22,50,44,36,48,34,25,98,71,52,29.80,29.72,20,6,23,0.31
2013-10-23,44,39,35,37,32,26,82,75,65,29.78,29.66,12,3,13,0.04
2013-10-24,47,38,33,33,29,27,85,71,49,29.98,29.75,20,6,22,0.04
2013-10-25,46,39,34,42,36,32,100,88,61,30.13,29.98,14,4,15,0.28
2013-10-26,44,40,37,36,31,26,92,71,51,30.07,29.75,27,9,27,0.12
2013-10-27,45,40,36,38,34,29,96,79,58,30.01,29.78,15,4,15,0.04
2013-10-28,46,39,29,37,28,19,80,65,48,30.31,29.98,14,4,17,0.00
2013-10-29,43,35,27,30,24,18,78,65,52,30.40,30.22,9,1,9,0.00
2013-10-30,53,43,36,41,35,30,88,73,55,30.22,30.04,9,2,9,0.00
2013-10-31,65,54,38,63,50,33,100,88,67,30.04,29.36,24,6,25,0.47
2013-11-1,60,54,47,60,47,39,100,78,57,29.66,29.18,37,12,44,1.06
2013-11-2,47,43,36,46,42,35,100,96,87,29.95,29.57,15,4,15,0.00
2013-11-3,36,32,25,35,24,18,97,73,54,30.45,29.95,13,4,13,0.00
2013-11-4,39,32,22,24,20,16,83,64,50,30.54,30.37,14,3,15,0.00
2013-11-5,55,44,34,38,28,18,60,53,49,30.40,30.28,11,5,11,0.00
2013-11-6,64,54,45,56,40,29,94,60,51,30.28,29.78,18,7,24,0.16
2013-11-7,55,42,36,53,35,26,100,78,62,29.95,29.78,24,6,24,0.20
2013-11-8,40,36,33,30,26,23,82,65,52,30.16,29.89,25,6,25,0.00
2013-11-9,49,42,34,40,29,23,75,61,48,30.16,29.75,21,7,22,0.04
2013-11-10,48,42,37,37,30,25,76,63,55,30.10,29.75,26,9,26,0.00
2013-11-11,43,36,28,35,28,24,97,76,55,30.10,29.86,24,6,24,0.43
2013-11-12,30,26,23,27,19,14,93,73,57,30.31,30.07,19,4,19,0.04
2013-11-13,35,29,20,24,18,13,80,66,51,30.34,30.01,27,8,32,0.04
2013-11-14,45,38,32,29,21,16,64,50,41,30.04,29.95,29,12,34,0.00
2013-11-15,69,43,38,27,23,20,51,45,41,30.07,29.98,17,7,20,0.00
2013-11-16,54,45,33,37,30,21,67,56,48,30.19,29.98,13,3,15,0.00
2013-11-17,59,55,49,54,47,37,90,76,62,29.98,29.36,26,9,26,0.16
2013-11-18,54,44,35,46,32,22,83,62,54,29.86,29.36,41,13,41,0.12
2013-11-19,36,32,23,24,20,14,68,59,52,30.37,29.86,25,6,25,0.00
2013-11-20,35,28,19,22,17,11,79,64,53,30.51,30.37,10,3,11,0.00
2013-11-21,45,38,30,34,24,15,85,57,49,30.37,30.19,16,7,17,0.04
2013-11-22,47,41,31,47,40,29,100,99,86,30.19,29.95,22,4,23,0.28
2013-11-23,34,26,16,29,18,5,92,71,53,30.13,29.95,25,8,30,0.00
2013-11-24,22,18,13,12,7,3,71,63,54,30.31,30.10,19,7,23,0.00
2013-11-25,32,26,16,19,12,7,73,57,44,30.31,30.04,23,8,24,0.00
2013-11-26,34,32,30,29,24,19,89,71,61,30.07,29.75,18,4,23,0.00
2013-11-27,32,29,21,30,24,12,96,82,65,29.86,29.60,23,4,23,0.00
2013-11-28,25,21,14,16,11,5,75,65,54,30.34,29.86,17,4,22,0.00
2013-11-29,24,20,10,17,10,-1,78,66,55,30.63,30.31,8,1,8,0.00
2013-11-30,32,23,11,20,11,0,65,61,57,30.60,30.10,17,5,18,0.00
2013-12-1,38,34,31,31,25,20,89,70,61,30.10,29.89,14,4,15,0.00
2013-12-2,37,34,31,30,29,28,88,82,74,29.89,29.80,8,2,8,0.12
2013-12-3,35,30,25,28,24,20,88,79,66,29.95,29.83,7,2,8,0.00
2013-12-4,42,36,32,40,34,26,100,93,80,29.95,29.83,10,4,10,0.08
2013-12-5,60,48,38,52,42,31,95,80,59,29.98,29.69,20,8,24,0.00
2013-12-6,38,32,29,32,25,19,89,75,64,30.19,29.95,10,3,12,0.04
2013-12-7,29,26,20,21,14,8,72,61,52,30.48,30.16,17,6,19,0.00
2013-12-8,27,23,18,18,12,8,73,60,52,30.48,30.10,13,4,15,0.00
2013-12-9,37,32,26,34,26,17,88,76,61,30.10,29.78,28,9,32,0.08
2013-12-10,32,23,18,20,11,5,80,60,53,29.98,29.83,21,7,24,0.00
2013-12-11,24,19,11,14,8,0,73,60,53,30.19,29.98,22,6,24,0.00
2013-12-12,17,13,8,9,3,-3,75,64,55,30.25,29.95,27,7,30,0.00
2013-12-13,24,18,11,14,8,1,71,66,60,30.31,29.92,26,6,26,0.00
2013-12-14,18,13,9,13,5,0,83,70,65,30.31,29.69,14,5,15,0.00
2013-12-15,23,20,17,18,14,5,90,77,57,29.80,29.54,26,5,26,0.00
2013-12-16,20,12,-3,8,1,-13,69,62,57,30.10,29.80,20,4,22,0.00
2013-12-17,26,17,-4,22,10,-15,89,72,62,30.04,29.83,15,3,22,0.00
2013-12-18,30,26,24,20,18,14,84,70,58,29.98,29.83,16,6,20,0.00
2013-12-19,39,33,26,30,23,13,85,65,55,29.98,29.80,24,7,27,0.00
2013-12-20,41,37,33,41,36,30,100,96,86,29.95,29.72,13,4,13,0.28
2013-12-21,50,40,31,50,40,31,100,100,98,29.83,29.69,19,5,19,1.22
2013-12-22,41,35,31,41,35,30,98,98,98,29.92,29.57,21,4,26,0.63
2013-12-23,38,33,24,37,26,12,98,78,53,30.19,29.89,17,6,23,0.00
2013-12-24,25,20,12,17,10,1,74,64,60,30.40,30.10,15,4,15,0.00
2013-12-25,24,14,0,10,2,-9,62,58,52,30.40,30.13,9,2,10,0.00
2013-12-26,30,26,20,23,13,5,76,59,50,30.19,29.98,16,5,17,0.00
2013-12-27,32,27,19,23,16,5,73,64,53,30.19,29.98,18,6,21,0.55
2013-12-28,40,37,31,30,24,19,80,60,47,30.01,29.86,33,9,33,0.55
2013-12-29,43,38,28,35,26,22,87,64,45,29.86,29.57,18,7,20,0.08
2013-12-30,28,18,15,23,4,-2,80,53,46,30.13,29.72,23,7,23,0.00
2013-12-31,22,17,12,12,2,-5,67,52,44,30.13,29.89,23,6,27,0.00
2014-1-1,20,15,12,5,1,-3,63,52,44,30.31,30.13,15,5,18,0.00
2014-1-2,14,10,2,4,0,-8,63,63,63,30.19,29.92,18,8,20,0.55